Location: Wiesbaden
(50.0830°N, 8.2500°E)
Time: 08:05:50
(UTC+02:00)

ISS - Visible Passes

Search period start: 25 May 2019 00:00
Search period end: 04 June 2019 00:00
Orbit: 408 x 418 km, 51.6° (Epoch: 25 May)

Date Brightness Start Highest point End Pass type
(mag) Time Alt. Az. Time Alt. Az. Time Alt. Az.
25 May -3.8 00:15:43 10° WNW 00:19:05 86° NNE 00:20:20 36° ESE visible
25 May -1.3 01:52:36 10° W 01:53:08 13° W 01:53:08 13° W visible
25 May -3.6 23:26:13 10° WNW 23:29:34 73° N 23:32:20 14° E visible
26 May -2.6 01:02:58 10° W 01:05:08 31° WSW 01:05:08 31° WSW visible
26 May -3.4 22:36:41 10° W 22:40:01 66° N 22:43:22 10° E visible
27 May -3.8 00:13:24 10° WNW 00:16:43 59° SSW 00:17:09 53° SSE visible
27 May -3.9 23:23:53 10° WNW 23:27:14 80° SSW 23:29:12 23° ESE visible
28 May -1.6 01:00:56 10° W 01:02:00 16° WSW 01:02:00 16° WSW visible
28 May -3.7 22:34:21 10° WNW 22:37:42 82° NNE 22:41:03 10° ESE visible
29 May -2.8 00:11:10 10° W 00:14:05 31° SW 00:14:05 31° SW visible
29 May -3.4 23:21:32 10° WNW 23:24:45 46° SSW 23:26:10 27° SSE visible
30 May -3.7 22:31:56 10° WNW 22:35:16 65° SSW 22:38:17 12° ESE visible
31 May -1.7 00:09:19 10° W 00:11:05 16° SW 00:11:05 16° SW visible
31 May -2.3 23:19:20 10° W 23:22:06 24° SW 23:23:14 20° S visible
01 Jun -2.8 22:29:34 10° W 22:32:40 35° SSW 22:35:24 12° SE visible
02 Jun -1.4 23:17:56 10° WSW 23:19:15 12° SW 23:20:25 10° SSW visible
03 Jun -1.8 22:27:30 10° W 22:29:52 18° SW 22:32:15 10° S visible
